Preview of NWS' New Version of Forecast
This preview is not operational and should not be used for support decisions.

Regional Weather Roundup (RWR)

Issued by National Weather Service (NWS)

                            
000
ASUS45 KCYS 212110
RWRWY 

WYOMING REGIONAL WEATHER ROUNDUP
NATIONAL WEATHER SERVICE CHEYENNE WY
300 PM MDT SUN APR 21 2019

NOTE:  "FAIR" INDICATES FEW OR NO CLOUDS BELOW 12,000 FEET
WITH NO SIGNIFICANT WEATHER AND/OR OBSTRUCTIONS TO VISIBILITY.

WYZ001-212200-
YELLOWSTONE NATIONAL PARK
  
CITY           SKY/WX    TMP DP  RH WIND       PRES   REMARKS
LK YELLOWSTONE   N/A     41  29  62 VRB6      30.05R                  
W YELLOWSTONE  NOT AVBL                                               

$$
WYZ002>013-054>058-071-098>099-212200-
NORTHERN WYOMING
  
CITY           SKY/WX    TMP DP  RH WIND       PRES   REMARKS
JACKSON        LGT RAIN  45  39  79 VRB3      29.97R                  
CODY           CLOUDY    41  35  79 NW17G25   30.11R                  
GREYBULL       CLOUDY    52  39  61 NW24G32   29.99R                  
WORLAND        CLOUDY    46  40  79 NW15      30.04R                  
SHERIDAN       LGT RAIN  45  42  89 N6        30.12R FOG              
BUFFALO        CLOUDY    42  40  92 N21       30.09R                  
GILLETTE       LGT RAIN  44  43  96 N18       30.03R                  
HULETT         LGT RAIN  43  41  93 NE8G17    30.05S                  
NEWCASTLE      CLOUDY    52  46  82 N10G16    29.95S                  

$$
WYZ014>020-022>026-101>103-212200-
CENTRAL WYOMING
  
CITY           SKY/WX    TMP DP  RH WIND       PRES   REMARKS
BIG PINEY      CLOUDY    44  39  82 E7        29.97S                  
PINEDALE       RAIN      41  37  87 SW15      30.00R                  
DUBOIS         DRIZZLE   37  36  93 E12       30.01R WCI  30          
LANDER         LGT RAIN  42  38  85 N9        30.04R                  
RIVERTON       CLOUDY    40  36  86 N17       30.04R WCI  31          
CASPER         CLOUDY    44  39  82 N18       30.01R                  
DOUGLAS        CLOUDY    46  41  82 N14       29.99R                  

$$
WYZ021-027>030-104>119-212200-
SOUTHERN WYOMING
  
CITY           SKY/WX    TMP DP  RH WIND       PRES   REMARKS
EVANSTON       LGT RAIN  47  40  76 W8        29.93R                  
KEMMERER       FAIR      50  34  53 E7        29.96R                  
ROCK SPRINGS   FAIR      54  35  48 VRB6      29.92S                  
DIXON          FAIR      57  36  45 S16G22    29.97S                  
RAWLINS        PTSUNNY   52  43  71 NE16      29.93S                  
SARATOGA       CLOUDY    55  32  41 W20G29    29.93R                  
LARAMIE        TSTM      40  37  89 N9        29.98R WCI  34          
CHEYENNE       CLOUDY    53  42  66 N14G21    29.94R                  
TORRINGTON     LGT RAIN  50  49  96 NE15      29.89F                  
PINE BLUFFS    CLOUDY    54  43  66 N25G32    29.89R                  

$$